Regional Weather Roundup
Issued by NWS

Home | Current Version | Previous Version | Graphics & Text | Print | Product List | Glossary On
Versions: 1 2 3 4 5 6 7 8 9 10 11 12 13 14 15 16 17 18 19 20 21 22 23 24 25 26 27 28 29 30 31 32 33 34 35 36 37 38 39 40 41 42 43 44 45 46 47 48 49 50
000
ASUS43 KDMX 040607
RWRIA

WEATHER ROUNDUP FOR IOWA
NATIONAL WEATHER SERVICE DES MOINES IA
1200 AM CST WED MAR 04 2015

NOTE: "FAIR" INDICATES FEW OR NO CLOUDS BELOW 12,000 FEET WITH NO
SIGNIFICANT WEATHER AND/OR OBSTRUCTIONS TO VISIBILITY.

* - THESE STATIONS ARE NOT NWS STATIONS...THUS NOT UNDER NWS
QUALITY CONTROL.  THEY ALSO DO NOT REPORT WEATHER SUCH
AS PRECIPITATION OR FOG.

IAZ001>003-012>014-020>022-031>034-043>046-040700-
   NORTHWEST IOWA

CITY           SKY/WX    TMP DP  RH WIND       PRES   REMARKS
CARROLL *      CLOUDY    12   3  67 NW15      30.12R WCI  -4
CHEROKEE *     CLEAR     10   4  75 NW6       30.13R WCI   1
DENISON *      CLOUDY    14   5  67 NW9       30.13R WCI   2
LE MARS *      CLOUDY    10   7  85 CALM      30.16R
ORANGE CITY *  CLEAR     14   3  62 NW7       30.12R WCI   4
SHELDON *      CLOUDY    10   1  67 NW9       30.10R WCI  -2
SIOUX CITY     CLOUDY    16   6  65 NW6       30.17R WCI   7
6HR MIN TEMP:  16; 6HR MAX TEMP:  21;

SPENCER        PTCLDY    10   0  63 NW14      30.10R WCI  -6
6HR MIN TEMP:  10; 6HR MAX TEMP:  16;

STORM LAKE *   PTCLDY     9   1  72 NW9       30.11R WCI  -5
$$

IAZ055>058-069>071-079>083-090>094-040700-
   SOUTHWEST IOWA

CITY           SKY/WX    TMP DP  RH WIND       PRES   REMARKS
ATLANTIC *     CLOUDY    14   5  67 N18G24    30.12R WCI  -3
AUDUBON *      CLEAR     12   5  73 N14G20    30.12R WCI  -3
CLARINDA *     CLEAR     18   9  68 N17G25    30.14R WCI   2
COUNCIL BLFS * CLOUDY    18   5  57 N16G22    30.12R WCI   3
CRESTON *      CLEAR     14   5  67 N16G23    30.08R WCI  -2
HARLAN  *      MOCLDY    14   7  73 N18       30.16R WCI  -3
LAMONI         CLEAR     18  11  74 N15       30.05R WCI   4
6HR MIN TEMP:  18; 6HR MAX TEMP:  32;

RED OAK *      CLOUDY    18   7  62 N17       30.14R WCI   2
SHENANDOAH *   CLEAR     18   9  68 N13G20    30.15R WCI   4
$$

IAZ047>049-059>061-072>074-084-040700-
   CENTRAL IOWA

CITY           SKY/WX    TMP DP  RH WIND       PRES   REMARKS
AMES           MOCLDY    14   6  70 N15G28    30.09R WCI  -1
6HR MIN TEMP:  13; 6HR MAX TEMP:  26;

ANKENY *       MOCLDY    16   7  67 NW13      30.09R WCI   2
CHARITON *     MOCLDY    18  10  73 NW13G23   30.05R WCI   4
DES MOINES     MOCLDY    16   6  65 N16G22    30.08R WCI   1
6HR MIN TEMP:  16; 6HR MAX TEMP:  29;

GRINNELL*      CLEAR     12   7  79 NW17      30.05R WCI  -5
KNOXVILLE *    MOCLDY    18   9  68 N16       30.04S WCI   3
MARSHALLTOWN   CLEAR     11   3  70 NW16      30.05R WCI  -6
6HR MIN TEMP:  11; 6HR MAX TEMP:  25;

PELLA *        FLURRIES  17  13  85 NW16      30.08R WCI   2
PERRY *          N/A     14   9  79 NW18      30.11R WCI  -3
$$

IAZ004>006-015-016-023>025-035-036-040700-
   NORTH CENTRAL IOWA

CITY           SKY/WX    TMP DP  RH WIND       PRES   REMARKS
ALGONA *       CLEAR     10 N/A N/A NW14      30.08R WCI  -5
CLARION *      CLEAR      9   3  78 NW14      30.07S WCI  -8
ESTHERVILLE    CLEAR      8   1  73 NW12      30.07R WCI  -7
6HR MIN TEMP:   8; 6HR MAX TEMP:  15; 6HR PCP: TRACE;

FORT DODGE *   CLEAR     10   1  67 NW3       30.10R
MASON CITY     CLEAR      8   0  69 NW18      30.05R WCI -11
6HR MIN TEMP:   8; 6HR MAX TEMP:  18;

FOREST CITY *  CLEAR     10   0  61 NW15      30.04S WCI  -6
IOWA FALLS *     N/A     10   3  72 NW20      30.06R WCI  -8
$$

IAZ007>011-017>019-026>030-037>042-050>054-066-040700-
   NORTHEAST IOWA

CITY           SKY/WX    TMP DP  RH WIND       PRES   REMARKS
CEDAR RAPIDS   PTCLDY    12   6  77 NW18      30.00R WCI  -6
6HR MIN TEMP:  12; 6HR MAX TEMP:  29;

CHARLES CITY * CLEAR      9   1  72 NW20      30.02R WCI -11
CLINTON *      MOCLDY    18   9  68 NW22      29.97R WCI   0
DECORAH *      MOCLDY     9   1  72 NW13      29.96S WCI  -7
DUBUQUE          N/A    N/A N/A N/A MISG      29.93R
MONTICELLO *   CLEAR     12   7  79 NW16      29.98R WCI  -4
OELWEIN *      PTCLDY     9   1  72 NW23      29.99F WCI -12
WATERLOO       CLEAR     10   3  73 NW13      30.02S WCI  -5
6HR MIN TEMP:  10; 6HR MAX TEMP:  24;

$$

IAZ064-065-067-068-078-040700-
   EAST CENTRAL IOWA

CITY           SKY/WX    TMP DP  RH WIND       PRES   REMARKS
DAVENPORT      MOCLDY    19  11  70 NW15      29.98R WCI   5
6HR MIN TEMP:  19; 6HR MAX TEMP:  32;

IOWA CITY      PTCLDY    16   7  67 NW16G25   30.03S WCI   1
6HR MIN TEMP:  16; 6HR MAX TEMP:  33;

MT. PLEASANT * MOCLDY    20  11  70 NW18      30.00S WCI   4
MUSCATINE *    CLEAR     19  12  73 NW15G22   30.02R WCI   5
QUAD CITIES    CLOUDY    21  12  68 NW16      29.98R WCI   7
6HR MIN TEMP:  21; 6HR MAX TEMP:  33;

$$

IAZ062-063-075>077-085>089-095>099-040700-
   SOUTHEAST IOWA

CITY           SKY/WX    TMP DP  RH WIND       PRES   REMARKS
BURLINGTON     MOCLDY    23  17  78 NW14      29.98R WCI  11
6HR MIN TEMP:  23; 6HR MAX TEMP:  34;

FAIRFIELD *    PTCLDY    18   9  68 NW20G28   30.03R WCI   1
FORT MADISON * PTCLDY    25  18  74 NW16      30.00R WCI  12
KEOKUK *       CLEAR     25  18  74 NW16G24   30.00R WCI  12
OSKALOOSA *      N/A     16   8  71 N21       30.05R WCI  -2
CENTERVILLE *  CLEAR     23  16  74 N8        30.03S WCI  14
OTTUMWA        CLEAR     17   8  67 NW22      30.04R WCI   0
6HR MIN TEMP:  17; 6HR MAX TEMP:  33;

WASHINGTON *   CLEAR     18  12  79 NW21G28   30.03R WCI   1
$$

ABBREVIATIONS USED IN REMARKS
   TC - TEMPERATURES IN CELSIUS
  WCI - WIND CHILL INDEX
   HX - HEAT INDEX
  VSB - VISIBILITY
$$



USA.gov is the U.S. government's official web portal to all federal, state and local government web resources and services.